Weather Roundup
Issued by NWS

Home | Current Version | Previous Version | Text Only | Print | Product List | Glossary On
Versions: 1 2 3 4 5 6 7 8 9 10 11 12 13 14 15 16 17 18 19 20 21 22 23 24 25 26 27 28 29 30 31 32 33 34 35 36 37 38 39 40 41 42 43 44 45 46 47 48 49 50
412
NZUS93 KARX 201010
HRRWXR

CURRENT HOURLY OBSERVATIONS ACROSS
MUCH OF THE UPPER MISSISSIPPI VALLEY
NATIONAL WEATHER SERVICE LA CROSSE WI
400 AM CST TUE FEB 20 2018


...SOUTHEAST MINNESOTA...


CITY           SKY/WX    TMP DP  RH WIND       PRES   REMARKS
ROCHESTER      MIX PCPN  28  27  96 CALM      29.77R
ROCHESTER/MAYO CLOUDY    27  27 100 W3        29.79R
WINONA         MIX PCPN  30  30 100 SE5       29.75F WCI  25
AUSTIN         MIX PCPN  27  25  93 NW5       29.77S WCI  21
ALBERT LEA     CLOUDY    23  21  93 CALM      29.78F
DODGE CENTER   FLURRIES  23  21  93 CALM      29.78R
PRESTON        MIX PCPN  29  28  96 CALM      29.76R
OWATONNA       MIX PCPN  21  19  93 CALM      29.80S
FARIBAULT      CLOUDY    19  18  93 CALM      29.81F
$$

...ELSEWHERE IN MINNESOTA...


CITY           SKY/WX    TMP DP  RH WIND       PRES   REMARKS
MINNEAPOLIS    LGTSLEET  20  19  96 N5        29.84S FOG     WCI  13
INTNL FALLS    LGT SNOW   4   0  83 NE9       30.02F FOG     WCI -10
DULUTH         LGT SNOW  14  10  84 NE14      29.82F VSB 1   WCI  -1
RED WING       LGT SNOW  23  18  80 CALM      29.81R
REDWOOD FALLS  LGT SNOW  14  12  92 N9        29.89F FOG     WCI   2
MANKATO        NOT AVBL
WORTHINGTON    FLURRIES  12   9  87 NW17      29.84F WCI  -5
FAIRMONT       FLURRIES  18  16  92 N17       29.84F WCI   3
$$

...SOUTHWEST WISCONSIN...


CITY           SKY/WX    TMP DP  RH WIND       PRES   REMARKS
LA CROSSE      FRZ RAIN  31  29  92 NE6       29.76F FOG     WCI  25
PRAIRIE DU CHI MIX PCPN  33  32  96 NW10G23   29.85R VSB 1   WCI  25
BOSCOBEL       CLOUDY    33  32  96 N6        29.80R FOG     WCI  28
LONE ROCK      HVY RAIN  33  33 100 CALM      29.78R VSB 1/4
PLATTEVILLE    CLOUDY    35  35 100 SW5       29.75F WCI  31
FORT MC COY    MIX PCPN  28  28  99 CALM      29.80R
CAMP DOUGLAS   FRZ RAIN  28  28 100 CALM      29.75F FOG
MAUSTON-NEW LI FOG       30  30  99 CALM      29.76F VSB 3/4
VIROQUA        CLOUDY    31  31 100 CALM      29.80R
WIS DELLS      FOG       30  29  98 E5        29.76F VSB<1/4 WCI  25
$$

...ELSEWHERE IN WISCONSIN...


CITY           SKY/WX    TMP DP  RH WIND       PRES   REMARKS
MILWAUKEE      LGT RAIN  38  38 100 E3        29.77F VSB 1
MADISON        LGT RAIN  33  33 100 N3        29.77S VSB 1/2
GREEN BAY      CLOUDY    31  29  92 NE8       29.79F FOG     WCI  23
EAU CLAIRE     CLOUDY    21  19  92 NE7       29.78F WCI  12
BLACK RVR FLS  MIX PCPN  29  29 100 CALM      29.81R
MEDFORD        CLOUDY    22  21  95 NE3       29.78R
WAUSAU         CLOUDY    26  25  96 E3        29.73F FOG
WIS RAPIDS     CLOUDY    27  25  92 CALM      29.78R FOG
MARSHFIELD     CLOUDY    27  26  96 E6        29.75S FOG     WCI  20
RICE LAKE      CLOUDY    19  18  95 NE7       29.79F FOG     WCI  10
$$

...NORTHEAST IOWA...


CITY           SKY/WX    TMP DP  RH WIND       PRES   REMARKS
WATERLOO       FRZ RAIN  31  31 100 W3        29.76R FOG
DUBUQUE        LGT RAIN  34  33  96 S8        29.74S FOG     WCI  27
DECORAH        MIX PCPN  32  32 100 E13       29.70F WCI  22
MASON CITY     CLOUDY    27  25  92 W8        29.81R WCI  19
CHARLES CITY   LGT RAIN  32  32 100 SW12      29.81R WCI  23
OELWEIN        LGT SNOW  32  32 100 SE16      29.72F WCI  21
$$

...ELSEWHERE IN IOWA...


CITY           SKY/WX    TMP DP  RH WIND       PRES   REMARKS
DES MOINES     FRZ DRZL  29  27  92 W9        29.82F WCI  20
IOWA CITY      RAIN      35  34  96 W14       29.84R FOG     WCI  26
FORT DODGE     LGT SNOW  23  21  92 NW10G16   29.85R FOG     WCI  12
MARSHALLTOWN   CLOUDY    31  31 100 W13       29.82R WCI  21
CEDAR RAPIDS   LGT RAIN  33  32  96 W16       29.84R FOG     WCI  23
$$

...NORTHERN ILLINOIS...


CITY           SKY/WX    TMP DP  RH WIND       PRES   REMARKS
CHICAGO-OHARE  RAIN      60  58  92 SW17      29.81S FOG
CHICAGO-MIDWAY LGT RAIN  61  59  93 SW16G26   29.83R
MOLINE         HVY RAIN  40  39  97 E3        29.77F FOG
ROCKFORD       LGT RAIN  44  44 100 S3        29.79S VSB 1/2
PEORIA         CLOUDY    60  59  96 S9        29.81R
$$

NOTE: "FAIR" INDICATES FEW OR NO CLOUDS BELOW 12,000 FEET WITH NO
SIGNIFICANT WEATHER AND/OR OBSTRUCTIONS TO VISIBILITY. WIND
SPEEDS ARE IN MILES-PER-HOUR.




USA.gov is the U.S. government's official web portal to all federal, state and local government web resources and services.